Location: Hoyos del Collado
(40.3594°N, 5.2003°W)
Time: 09:00:13
(UTC+00:00)

Okean 1 Rocket - Visible Passes

Search period start: 24 July 2024 00:00
Search period end: 03 August 2024 00:00
Orbit: 604 x 629 km, 82.5° (Epoch: 23 July)

Date Brightness Start Highest point End Pass type
(mag) Time Alt. Az. Time Alt. Az. Time Alt. Az.
24 Jul 4.9 20:21:58 10° NNW 20:26:00 34° W 20:30:00 10° SSW visible
25 Jul 5.8 20:39:18 10° NW 20:42:25 19° W 20:45:32 10° SW visible
26 Jul 6.5 20:58:21 10° WNW 20:58:45 10° W 20:59:10 10° W visible
29 Jul 5.9 20:08:00 10° NW 20:11:08 19° W 20:14:17 10° SW visible
30 Jul 6.6 20:26:50 10° WNW 20:27:28 10° W 20:28:06 10° W visible
